| time (UTC) | temp F | wind direction | speed MPH | gust MPH | rain 1hr in | rain 24hr in | rain mn in | humidity % | barometer mb |
| 20260905010051 | 73 | 220 | 6.0 | 12.0 | 0.00 | 0.00 | 0.00 | 20 | 939.7 |
| 20260905004632 | 74 | 178 | 9.0 | 15.0 | 0.00 | 0.00 | 0.00 | 17 | 939.7 |
| 20260905003033 | 74 | 153 | 8.0 | 21.0 | 0.00 | 0.00 | 0.00 | 16 | 939.8 |
| 20260905001518 | 74 | 194 | 10.0 | 19.0 | 0.00 | 0.00 | 0.00 | 16 | 939.9 |
| 20260905000003 | 74 | 196 | 9.0 | 16.0 | 0.00 | 0.00 | 0.00 | 16 | 939.8 |
| 20260904234546 | 74 | 154 | 4.0 | 15.0 | 0.00 | 0.00 | 0.00 | 19 | 939.8 |
| 20260904233039 | 74 | 244 | 6.0 | 13.0 | 0.00 | 0.00 | 0.00 | 22 | 939.8 |
| 20260904231518 | 73 | 163 | 7.0 | 15.0 | 0.00 | 0.00 | 0.00 | 20 | 939.9 |
| 20260904230109 | 73 | 261 | 8.0 | 16.0 | 0.00 | 0.00 | 0.00 | 24 | 939.9 |
| 20260904230002 | 73 | 259 | 9.0 | 16.0 | 0.00 | 0.00 | 0.00 | 24 | 939.8 |
| 20260904224540 | 74 | 229 | 5.0 | 15.0 | 0.00 | 0.00 | 0.00 | 23 | 939.9 |
| 20260904223028 | 74 | 262 | 8.0 | 23.0 | 0.00 | 0.00 | 0.00 | 27 | 939.9 |
| 20260904221510 | 73 | 203 | 7.0 | 12.0 | 0.00 | 0.00 | 0.00 | 27 | 939.9 |
| 20260904220052 | 73 | 263 | 6.0 | 11.0 | 0.00 | 0.00 | 0.00 | 28 | 940.0 |
| 20260904214542 | 72 | 161 | 1.0 | 11.0 | 0.00 | 0.00 | 0.00 | 30 | 940.1 |
| 20260904213033 | 71 | 216 | 8.0 | 16.0 | 0.00 | 0.00 | 0.00 | 33 | 940.1 |
| 20260904211506 | 71 | 221 | 7.0 | 13.0 | 0.00 | 0.00 | 0.00 | 34 | 940.2 |
| 20260904210044 | 72 | 213 | 7.0 | 12.0 | 0.00 | 0.00 | 0.00 | 34 | 940.1 |
| 20260904204524 | 69 | 196 | 6.0 | 16.0 | 0.00 | 0.00 | 0.00 | 34 | 940.1 |
| 20260904203012 | 70 | 249 | 3.0 | 10.0 | 0.00 | 0.00 | 0.00 | 34 | 940.2 |
| 20260904201550 | 69 | 155 | 2.0 | 14.0 | 0.00 | 0.00 | 0.00 | 34 | 940.3 |
| 20260904200035 | 69 | 279 | 5.0 | 13.0 | 0.00 | 0.00 | 0.00 | 37 | 940.5 |
| 20260904194516 | 68 | 271 | 7.0 | 12.0 | 0.00 | 0.00 | 0.00 | 38 | 940.6 |
| 20260904193010 | 67 | 261 | 7.0 | 16.0 | 0.00 | 0.00 | 0.00 | 40 | 940.6 |
| 20260904191546 | 68 | 186 | 5.0 | 11.0 | 0.00 | 0.00 | 0.00 | 41 | 940.8 |
| 20260904190032 | 67 | 271 | 5.0 | 9.0 | 0.00 | 0.00 | 0.00 | 41 | 940.9 |
| 20260904184521 | 65 | 273 | 5.0 | 12.0 | 0.00 | 0.00 | 0.00 | 43 | 941.1 |
| 20260904183050 | 64 | 221 | 3.0 | 11.0 | 0.00 | 0.00 | 0.00 | 46 | 941.3 |
| 20260904181543 | 63 | 243 | 8.0 | 12.0 | 0.00 | 0.00 | 0.00 | 46 | 941.6 |
| 20260904180041 | 62 | 256 | 4.0 | 11.0 | 0.00 | 0.00 | 0.00 | 52 | 941.6 |
| 20260904174508 | 60 | 254 | 5.0 | 10.0 | 0.00 | 0.00 | 0.00 | 50 | 941.5 |
| 20260904173048 | 60 | 298 | 7.0 | 12.0 | 0.00 | 0.00 | 0.00 | 51 | 941.5 |
| 20260904171603 | 59 | 240 | 5.0 | 10.0 | 0.00 | 0.00 | 0.00 | 52 | 941.6 |
| 20260904170012 | 59 | 205 | 4.0 | 7.0 | 0.00 | 0.00 | 0.00 | 54 | 941.5 |
| 20260904164614 | 58 | 232 | 4.0 | 9.0 | 0.00 | 0.00 | 0.00 | 55 | 941.5 |
| 20260904163048 | 56 | 246 | 4.0 | 7.0 | 0.00 | 0.00 | 0.00 | 58 | 941.4 |
| 20260904161539 | 56 | 213 | 3.0 | 10.0 | 0.00 | 0.00 | 0.00 | 59 | 941.5 |
| 20260904160030 | 54 | 232 | 5.0 | 9.0 | 0.00 | 0.00 | 0.00 | 62 | 941.5 |
| 20260904154513 | 54 | 267 | 6.0 | 9.0 | 0.00 | 0.00 | 0.00 | 62 | 941.4 |
| 20260904153058 | 53 | 258 | 4.0 | 8.0 | 0.00 | 0.00 | 0.00 | 64 | 941.3 |
| 20260904151535 | 52 | 277 | 6.0 | 8.0 | 0.00 | 0.00 | 0.00 | 67 | 941.2 |
| 20260904150016 | 52 | 247 | 4.0 | 8.0 | 0.00 | 0.00 | 0.00 | 68 | 941.3 |
| 20260904144600 | 51 | 235 | 3.0 | 6.0 | 0.00 | 0.00 | 0.00 | 68 | 941.1 |
| 20260904144501 | 51 | 252 | 3.0 | 6.0 | 0.00 | 0.00 | 0.00 | 68 | 941.1 |
| 20260904143040 | 50 | 240 | 2.0 | 5.0 | 0.00 | 0.00 | 0.00 | 69 | 941.0 |
| 20260904141526 | 50 | 241 | 0.0 | 2.0 | 0.00 | 0.00 | 0.00 | 68 | 940.8 |
| 20260904140011 | 48 | 241 | 0.0 | 1.0 | 0.00 | 0.00 | 0.00 | 72 | 940.6 |
| 20260904134552 | 46 | 241 | 0.0 | 3.0 | 0.00 | 0.00 | 0.00 | 76 | 940.4 |
| 20260904133034 | 46 | 266 | 4.0 | 8.0 | 0.00 | 0.00 | 0.00 | 77 | 940.1 |
| 20260904131514 | 46 | 259 | 4.0 | 9.0 | 0.00 | 0.00 | 0.00 | 75 | 939.9 |
| 20260904130055 | 46 | 273 | 3.0 | 7.0 | 0.00 | 0.00 | 0.00 | 76 | 939.6 |
| 20260904124534 | 46 | 242 | 3.0 | 5.0 | 0.00 | 0.00 | 0.00 | 76 | 939.2 |
| 20260904123017 | 45 | 220 | 3.0 | 7.0 | 0.00 | 0.00 | 0.00 | 78 | 939.1 |
| 20260904121556 | 45 | 200 | 1.0 | 5.0 | 0.00 | 0.00 | 0.00 | 79 | 939.0 |
| 20260904120056 | 44 | 252 | 4.0 | 8.0 | 0.00 | 0.00 | 0.00 | 84 | 939.0 |
| 20260904114528 | 43 | 251 | 8.0 | 13.0 | 0.00 | 0.00 | 0.00 | 85 | 938.6 |
| 20260904113015 | 43 | 263 | 8.0 | 14.0 | 0.00 | 0.00 | 0.00 | 86 | 938.5 |
| 20260904111558 | 43 | 226 | 8.0 | 13.0 | 0.00 | 0.00 | 0.00 | 86 | 938.3 |
| 20260904110034 | 43 | 227 | 9.0 | 15.0 | 0.00 | 0.00 | 0.00 | 85 | 938.1 |
| 20260904104517 | 43 | 236 | 9.0 | 14.0 | 0.00 | 0.00 | 0.00 | 84 | 937.8 |
| 20260904103052 | 44 | 229 | 7.0 | 14.0 | 0.00 | 0.00 | 0.00 | 82 | 937.7 |
| 20260904101538 | 45 | 217 | 9.0 | 15.0 | 0.00 | 0.00 | 0.00 | 78 | 937.5 |
| 20260904100115 | 46 | 260 | 13.0 | 17.0 | 0.00 | 0.00 | 0.00 | 74 | 937.0 |
| 20260904094550 | 49 | 217 | 4.0 | 7.0 | 0.00 | 0.00 | 0.00 | 62 | 936.6 |
| 20260904093019 | 57 | 245 | 4.0 | 14.0 | 0.00 | 0.00 | 0.00 | 41 | 936.5 |
| 20260904091554 | 61 | 138 | 10.0 | 17.0 | 0.00 | 0.00 | 0.00 | 23 | 936.1 |
| 20260904090036 | 62 | 123 | 8.0 | 15.0 | 0.00 | 0.00 | 0.00 | 22 | 936.4 |
| 20260904084518 | 62 | 102 | 7.0 | 14.0 | 0.00 | 0.00 | 0.00 | 22 | 936.3 |
| 20260904083004 | 61 | 138 | 7.0 | 15.0 | 0.00 | 0.00 | 0.00 | 23 | 936.0 |
| 20260904081546 | 62 | 90 | 6.0 | 13.0 | 0.00 | 0.00 | 0.00 | 22 | 936.0 |
| 20260904080031 | 62 | 96 | 8.0 | 13.0 | 0.00 | 0.00 | 0.00 | 22 | 936.1 |
| 20260904074514 | 62 | 87 | 6.0 | 13.0 | 0.00 | 0.00 | 0.00 | 21 | 936.1 |
| 20260904073054 | 63 | 113 | 8.0 | 12.0 | 0.00 | 0.00 | 0.00 | 20 | 936.0 |
| 20260904071538 | 63 | 100 | 7.0 | 12.0 | 0.00 | 0.00 | 0.00 | 20 | 936.0 |
| 20260904070035 | 62 | 106 | 6.0 | 10.0 | 0.00 | 0.00 | 0.00 | 21 | 936.2 |
| 20260904064505 | 62 | 108 | 6.0 | 9.0 | 0.00 | 0.00 | 0.00 | 21 | 936.2 |
| 20260904063049 | 62 | 121 | 6.0 | 12.0 | 0.00 | 0.00 | 0.00 | 20 | 936.3 |
| 20260904061529 | 63 | 101 | 8.0 | 13.0 | 0.00 | 0.00 | 0.00 | 20 | 936.3 |
| 20260904060011 | 63 | 101 | 7.0 | 12.0 | 0.00 | 0.00 | 0.00 | 20 | 936.6 |
| 20260904054537 | 63 | 123 | 7.0 | 11.0 | 0.00 | 0.00 | 0.00 | 20 | 936.6 |
| 20260904053038 | 63 | 129 | 8.0 | 13.0 | 0.00 | 0.00 | 0.00 | 21 | 936.8 |
| 20260904051610 | 63 | 111 | 8.0 | 12.0 | 0.00 | 0.00 | 0.00 | 21 | 936.9 |
| 20260904051501 | 63 | 134 | 8.0 | 12.0 | 0.00 | 0.00 | 0.00 | 21 | 937.0 |
| 20260904050048 | 63 | 106 | 9.0 | 13.0 | 0.00 | 0.00 | 0.00 | 21 | 937.1 |
| 20260904044524 | 63 | 119 | 9.0 | 13.0 | 0.00 | 0.00 | 0.00 | 21 | 937.4 |
| 20260904043008 | 63 | 114 | 7.0 | 11.0 | 0.00 | 0.00 | 0.00 | 21 | 937.6 |
| 20260904041552 | 64 | 123 | 5.0 | 10.0 | 0.00 | 0.00 | 0.00 | 20 | 937.8 |
| 20260904040036 | 64 | 109 | 6.0 | 9.0 | 0.00 | 0.00 | 0.00 | 19 | 937.8 |
| 20260904034522 | 64 | 119 | 5.0 | 10.0 | 0.00 | 0.00 | 0.00 | 19 | 937.9 |
| 20260904033106 | 65 | 128 | 5.0 | 9.0 | 0.00 | 0.00 | 0.00 | 18 | 938.1 |
| 20260904033001 | 65 | 126 | 5.0 | 8.0 | 0.00 | 0.00 | 0.00 | 19 | 938.1 |
| 20260904031540 | 65 | 132 | 5.0 | 9.0 | 0.00 | 0.00 | 0.00 | 18 | 938.2 |
| 20260904030023 | 66 | 134 | 3.0 | 10.0 | 0.00 | 0.00 | 0.00 | 17 | 938.4 |
| 20260904024508 | 66 | 165 | 3.0 | 11.0 | 0.00 | 0.00 | 0.00 | 18 | 938.4 |
| 20260904023054 | 66 | 153 | 7.0 | 15.0 | 0.00 | 0.00 | 0.00 | 18 | 938.4 |
| 20260904021534 | 65 | 180 | 6.0 | 12.0 | 0.00 | 0.00 | 0.00 | 18 | 938.6 |
| 20260904020019 | 66 | 199 | 7.0 | 11.0 | 0.00 | 0.00 | 0.00 | 17 | 938.7 |
| 20260904014505 | 67 | 187 | 7.0 | 14.0 | 0.00 | 0.00 | 0.00 | 17 | 938.8 |
| 20260904013050 | 67 | 211 | 8.0 | 12.0 | 0.00 | 0.00 | 0.00 | 17 | 939.0 |
| 20260904011536 | 67 | 190 | 7.0 | 12.0 | 0.00 | 0.00 | 0.00 | 16 | 938.9 |